Orbital Elements at Epoch 2459000.5 (2020-May-31.0) TDB
Reference: JPL 40 (heliocentric ecliptic J2000)
Element | Value | Uncertainty (1-sigma) | Units |
e | .1573103233185902 | 3.3606e-08 | |
a | 2.252271203711123 | 6.8975e-09 | au |
q | 1.897965692454175 | 7.5684e-08 | au |
i | 3.636284930912224 | 3.648e-06 | deg |
node | 302.1693052603873 | 5.4326e-05 | deg |
peri | 1.044683808928527 | 5.5408e-05 | deg |
M | 171.1977671323967 | 1.1322e-05 | deg |
tp | 2458413.382468852802 (2018-Oct-21.88246885) | 3.8516e-05 | TDB |
period | 1234.609041656093 3.38 | 5.6714e-06 1.553e-08 | d yr |
n | .2915902831208003 | 1.3395e-09 | deg/d |
Q | 2.60657671496807 | 7.9826e-09 | au |
|
| | Orbit Determination Parameters
Additional Information
|